Bangkok (Don Mueang), Thailand

3:58 AM +07 on December 19, 2017 (GMT +0700)
Bangkok International

Weather History for VTBD - September, 2013

Change the Weather History Date:

Sunday, September 29, 2013

  Actual Average Record
Temperature  
Mean Temperature 84 °F -  
Max Temperature 92 °F 89 °F 95 °F (2002)
Min Temperature 77 °F 76 °F 74 °F (2014)
Cooling Degree Days 20    
Growing Degree Days 34 (Base 50)    
Moisture  
Dew Point 76 °F    
Average Humidity 78    
Maximum Humidity 94    
Minimum Humidity 52    
Precipitation  
Precipitation 0.12 in 0.24 in - ()
Sea Level Pressure  
Sea Level Pressure 29.71 in    
Wind  
Wind Speed 5 mph ()    
Max Wind Speed 12 mph    
Max Gust Speed -    
Visibility 6.0 miles    
Events Rain    
Averages and records for this station are not official NWS values.
T = Trace of Precipitation, MM = Missing Value Source: Averaged Metar Reports

Daily Weather History Graph

Daily Weather History Graph

Search for Another Location

Airport or City:

Trip Planner

Search our weather history database for the weather conditions in past years. The results will help you decide how hot, cold, wet, or windy it might be!

Date:

Astronomy

Sep. 29, 2013 Rise Set
Actual Time 6:06 AM +07 6:08 PM +07
Civil Twilight 5:45 AM +07 6:30 PM +07
Nautical Twilight 5:20 AM +07 6:54 PM +07
Astronomical Twilight 4:56 AM +07 7:19 PM +07
Moon 1:06 AM +07 (9/29) 2:02 PM +07 (9/29)
Length of Visible Light 12h 44m
Length of Day
12h 01m
Waning Crescent, 31% of the Moon is Illuminated
Sep 29
Waning Crescent
Oct 5
New
Oct 12
First Quarter
Oct 19
Full
Oct 27
Last Quarter

Hourly Weather History & Observations

Time (+07) Temp. Heat Index Dew Point Humidity Pressure Visibility Wind Dir Wind Speed Gust Speed Precip Events Conditions
12:00 AM 80.6 °F 86.2 °F 75.2 °F 84% 29.77 in 6.2 mi NNW 3.5 mph - N/A   Mostly Cloudy
12:30 AM 80.6 °F 86.2 °F 75.2 °F 84% 29.74 in 6.2 mi North 3.5 mph - N/A   Mostly Cloudy
1:00 AM 80 °F - 75 °F 81% 29.74 in 6 mi NNW 5.8 mph - -   Partly Cloudy
1:00 AM 80.6 °F 86.2 °F 75.2 °F 84% 29.74 in 6.2 mi NNW 5.8 mph - N/A   Mostly Cloudy
1:30 AM 80.6 °F 86.2 °F 75.2 °F 84% 29.71 in 6.2 mi NNW 3.5 mph - N/A   Mostly Cloudy
2:00 AM 80.6 °F 86.2 °F 75.2 °F 84% 29.71 in 6.2 mi NNE 4.6 mph - N/A   Mostly Cloudy
2:30 AM 80.6 °F 86.2 °F 75.2 °F 84% 29.71 in 6.2 mi North 4.6 mph - N/A   Mostly Cloudy
3:00 AM 80.6 °F 87.1 °F 77.0 °F 89% 29.71 in 3.1 mi North 10.4 mph - N/A Rain Rain
3:30 AM 78.8 °F - 77.0 °F 94% 29.71 in 4.3 mi North 9.2 mph - N/A Rain Light Rain
4:00 AM 78.8 °F - 77.0 °F 94% 29.71 in 5.0 mi NNE 5.8 mph - N/A Rain Light Rain
4:30 AM 78.8 °F - 75.2 °F 89% 29.71 in 5.0 mi North 4.6 mph - N/A Rain Light Rain
5:00 AM 77.0 °F - 75.2 °F 94% 29.71 in 5.6 mi West 5.8 mph - N/A Rain Light Rain
5:30 AM 77.0 °F - 75.2 °F 94% 29.71 in 6.2 mi WNW 5.8 mph - N/A   Mostly Cloudy
6:00 AM 77.0 °F - 75.2 °F 94% 29.71 in 6.2 mi WNW 3.5 mph - N/A   Mostly Cloudy
6:30 AM 77.0 °F - 75.2 °F 94% 29.74 in 6.2 mi NNW 4.6 mph - N/A   Mostly Cloudy
7:00 AM 78 °F - 76 °F 91% 29.76 in 6 mi NW 4.6 mph - -   Partly Cloudy
7:00 AM 78.8 °F - 75.2 °F 89% 29.74 in 6.2 mi NW 4.6 mph - N/A   Mostly Cloudy
7:30 AM 78.8 °F - 75.2 °F 89% 29.74 in 6.2 mi North 6.9 mph - N/A   Mostly Cloudy
8:00 AM 78.8 °F - 75.2 °F 89% 29.77 in 6.2 mi North 5.8 mph - N/A   Mostly Cloudy
8:30 AM 80.6 °F 86.2 °F 75.2 °F 84% 29.77 in 6.2 mi North 5.8 mph - N/A   Mostly Cloudy
9:00 AM 80.6 °F 87.1 °F 77.0 °F 89% 29.77 in 6.2 mi NNW 6.9 mph - N/A   Mostly Cloudy
9:30 AM 82.4 °F 90.9 °F 77.0 °F 84% 29.77 in 6.2 mi NNW 8.1 mph - N/A   Mostly Cloudy
10:00 AM 82.4 °F 90.9 °F 77.0 °F 84% 29.77 in 6.2 mi NNE 5.8 mph - N/A   Mostly Cloudy
10:30 AM 84.2 °F 92.3 °F 75.2 °F 74% 29.77 in 6.2 mi East 4.6 mph - N/A   Mostly Cloudy
11:00 AM 86.0 °F 96.9 °F 77.0 °F 74% 29.74 in 6.2 mi East 6.9 mph - N/A   Mostly Cloudy
11:30 AM 86.0 °F 95.1 °F 75.2 °F 70% 29.74 in 6.2 mi North 1.2 mph - N/A   Mostly Cloudy
12:00 PM 87.8 °F 95.6 °F 73.4 °F 62% 29.74 in 6.2 mi NNW 6.9 mph - N/A   Mostly Cloudy
12:30 PM 87.8 °F 95.6 °F 73.4 °F 62% 29.71 in 6.2 mi ENE 3.5 mph - N/A   Mostly Cloudy
1:00 PM 89 °F - 76 °F 57% 29.70 in 6 mi ENE 5.8 mph - -   Scattered Clouds
1:00 PM 89.6 °F 99.8 °F 75.2 °F 62% 29.68 in 6.2 mi ENE 5.8 mph - N/A   Mostly Cloudy
1:30 PM 91.4 °F 102.5 °F 75.2 °F 59% 29.68 in 6.2 mi East 6.9 mph - N/A   Mostly Cloudy
2:00 PM 91.4 °F 100.1 °F 73.4 °F 55% 29.65 in 6.2 mi NNE 2.3 mph - N/A   Mostly Cloudy
2:30 PM 93.2 °F 102.4 °F 73.4 °F 52% 29.62 in 6.2 mi North 5.8 mph - N/A   Mostly Cloudy
3:00 PM 91.4 °F 100.1 °F 73.4 °F 55% 29.62 in 6.2 mi NNE 5.8 mph - N/A   Mostly Cloudy
3:30 PM 91.4 °F 102.5 °F 75.2 °F 59% 29.62 in 6.2 mi NNE 9.2 mph - N/A   Mostly Cloudy
4:00 PM 91.4 °F 102.5 °F 75.2 °F 59% 29.62 in 6.2 mi ENE 8.1 mph - N/A   Mostly Cloudy
4:30 PM 89.6 °F 99.8 °F 75.2 °F 62% 29.62 in 6.2 mi ENE 6.9 mph - N/A   Mostly Cloudy
5:00 PM 89.6 °F 102.2 °F 77.0 °F 66% 29.65 in 6.2 mi East 11.5 mph - N/A   Mostly Cloudy
5:30 PM 86.0 °F 96.9 °F 77.0 °F 74% 29.65 in 6.2 mi East 6.9 mph - N/A   Mostly Cloudy
6:00 PM 86.0 °F 96.9 °F 77.0 °F 74% 29.65 in 6.2 mi East 3.5 mph - N/A   Mostly Cloudy
6:30 PM 86.0 °F 96.9 °F 77.0 °F 74% 29.65 in 6.2 mi SE 3.5 mph - N/A   Mostly Cloudy
7:00 PM 85 °F - 76 °F 69% 29.69 in 6 mi ESE 3.5 mph - -   Scattered Clouds
7:00 PM 84.2 °F 94.1 °F 77.0 °F 79% 29.68 in 6.2 mi ESE 3.5 mph - N/A   Mostly Cloudy
7:30 PM 84.2 °F 94.1 °F 77.0 °F 79% 29.68 in 6.2 mi South 3.5 mph - N/A   Mostly Cloudy
8:00 PM 84.2 °F 94.1 °F 77.0 °F 79% 29.71 in 6.2 mi SSE 3.5 mph - N/A   Mostly Cloudy
8:30 PM 84.2 °F 96.1 °F 78.8 °F 84% 29.71 in 6.2 mi SE 2.3 mph - N/A   Mostly Cloudy
9:00 PM 84.2 °F 94.1 °F 77.0 °F 79% 29.74 in 6.2 mi SW 3.5 mph - N/A   Mostly Cloudy
9:30 PM 82.4 °F 89.5 °F 75.2 °F 79% 29.74 in 6.2 mi West 10.4 mph - N/A   Mostly Cloudy
10:00 PM 80.6 °F 86.2 °F 75.2 °F 84% 29.74 in 6.2 mi West 8.1 mph - N/A   Mostly Cloudy
10:30 PM 80.6 °F 86.2 °F 75.2 °F 84% 29.74 in 6.2 mi WSW 6.9 mph - N/A   Mostly Cloudy
11:00 PM 78.8 °F - 75.2 °F 89% 29.74 in 6.2 mi WSW 5.8 mph - N/A   Mostly Cloudy
11:30 PM 78.8 °F - 75.2 °F 89% 29.71 in 6.2 mi WSW 5.8 mph - N/A   Mostly Cloudy